{"data":{"norad_id":56030,"epoch":"2026-05-24T17:15:11.363328Z","epoch_age_seconds":106133,"freshness":"FRESH","line1":"1 56030U 23042AW  26144.71888152 -.00000233  00000+0  10764-5 0  9993","line2":"2 56030  43.0057 335.8054 0001891 270.7142  89.3493 15.27575720174666","mean_motion":15.2757572,"eccentricity":0.0001891,"inclination_deg":43.0057,"raan_deg":335.8054,"arg_perigee_deg":270.7142,"mean_anomaly_deg":89.3493,"bstar":1.0764e-6,"rev_number":17466,"period_min":94.267012832595,"perigee_km":481.76445921505,"apogee_km":484.35936464354,"semimajor_km":6861.1989119293,"source":"CELESTRAK","updated_at":"2026-05-25T13:38:17.950544Z"}}